Weather History for Fargo, ND

Change the Weather History Date:

Wednesday, September 26, 2012

  Actual Average Record
Temperature  
Mean Temperature 47 °F 54 °F  
Max Temperature 65 °F 66 °F 90 °F (1979)
Min Temperature 28 °F 43 °F 19 °F (1965)
Degree Days  
Heating Degree Days 18 11  
Month to date heating degree days 206 172  
Since 1 July heating degree days 224 222  
Cooling Degree Days 0 0  
Month to date cooling degree days 45 43  
Year to date cooling degree days 790 548  
Moisture  
Dew Point 29 °F    
Average Humidity 54    
Maximum Humidity 82    
Minimum Humidity 26    
Precipitation  
Precipitation 0.00 in 0.07 in 1.19 in (1998)
Month to date precipitation 0.12 2.26  
Year to date precipitation 11.34 18.32  
Snow  
Snow 0.00 in 0.00 in 0.30 in (1942)
Month to date snowfall 0.0 0.0  
Since 1 July snowfall 0.0 0.0  
Since 1 September snowfall 0.0 0.0  
Snow Depth 0.00 in    
Sea Level Pressure  
Sea Level Pressure 30.16 in    
Wind  
Wind Speed 3 mph (East)    
Max Wind Speed 9 mph    
Max Gust Speed 13 mph    
Visibility 10 miles    
Events      
T = Trace of Precipitation, MM = Missing Value Source: NWS Daily Summary

Daily Weather History Graph

Daily Weather History Graph

Search for Another Location

Airport:

Trip Planner

Search our weather history database for the weather conditions in past years. The results will help you decide how hot, cold, wet, or windy it might be!

Date:

Astronomy

Sep. 26, 2012 Rise Set
Actual Time 7:20 AM CDT 7:15 PM CDT
Civil Twilight 6:49 AM CDT 7:46 PM CDT
Nautical Twilight 6:14 AM CDT 8:21 PM CDT
Astronomical Twilight 5:37 AM CDT 8:57 PM CDT
Moon 5:24 PM CDT (9/26) 3:36 AM CDT (9/26)
Length of Visible Light 12h 56m
Length of Day
11h 55m
Waxing Gibbous, 88% of the Moon is Illuminated
Sep 26
Waxing Gibbous
Sep 29
Full
Oct 8
Last Quarter
Oct 15
New
Oct 21
First Quarter

Hourly Weather History & Observations

Time (CDT) Temp. Windchill Dew Point Humidity Pressure Visibility Wind Dir Wind Speed Gust Speed Precip Events Conditions
12:53 AM 41.0 °F - 30.9 °F 67% 30.06 in 10.0 mi Calm Calm - N/A   Clear
1:53 AM 37.9 °F - 30.0 °F 73% 30.08 in 10.0 mi Calm Calm - N/A   Clear
2:53 AM 33.1 °F - 26.1 °F 75% 30.09 in 10.0 mi Calm Calm - N/A   Clear
3:53 AM 33.1 °F 28.7 °F 26.1 °F 75% 30.09 in 10.0 mi NW 4.6 mph - N/A   Clear
4:53 AM 34.0 °F 29.8 °F 28.0 °F 79% 30.09 in 10.0 mi North 4.6 mph - N/A   Clear
5:53 AM 32.0 °F - 27.0 °F 82% 30.12 in 10.0 mi Calm Calm - N/A   Clear
6:53 AM 30.2 °F - 24.8 °F 80% 30.14 in 10.0 mi Calm Calm - N/A   Clear
7:53 AM 30.0 °F - 25.0 °F 82% 30.17 in 10.0 mi Calm Calm - N/A   Clear
8:53 AM 39.0 °F - 30.9 °F 73% 30.19 in 10.0 mi Calm Calm - N/A   Clear
9:53 AM 46.0 °F - 33.1 °F 61% 30.20 in 10.0 mi Calm Calm - N/A   Clear
10:53 AM 53.1 °F - 34.0 °F 48% 30.20 in 10.0 mi Calm Calm - N/A   Clear
11:53 AM 55.9 °F - 33.1 °F 42% 30.20 in 10.0 mi Calm Calm - N/A   Clear
12:53 PM 59.0 °F - 33.1 °F 38% 30.20 in 10.0 mi West 5.8 mph - N/A   Clear
1:53 PM 62.1 °F - 33.1 °F 34% 30.18 in 10.0 mi Calm Calm - N/A   Clear
2:53 PM 62.1 °F - 30.9 °F 31% 30.17 in 10.0 mi Calm Calm - N/A   Clear
3:53 PM 64.0 °F - 30.0 °F 28% 30.16 in 10.0 mi NW 3.5 mph - N/A   Clear
4:53 PM 64.9 °F - 28.9 °F 26% 30.16 in 10.0 mi North 3.5 mph - N/A   Clear
5:53 PM 64.0 °F - 28.9 °F 27% 30.16 in 10.0 mi East 3.5 mph - N/A   Clear
6:53 PM 61.0 °F - 28.0 °F 29% 30.17 in 10.0 mi East 3.5 mph - N/A   Clear
7:53 PM 52.0 °F - 28.0 °F 40% 30.18 in 10.0 mi ESE 4.6 mph - N/A   Clear
8:53 PM 46.9 °F - 27.0 °F 46% 30.20 in 10.0 mi SE 3.5 mph - N/A   Clear
9:53 PM 46.0 °F 43.1 °F 28.0 °F 50% 30.19 in 10.0 mi SE 5.8 mph - N/A   Clear
10:53 PM 46.4 °F 42.9 °F 26.6 °F 46% 30.17 in 10.0 mi SE 6.9 mph - N/A   Clear
11:53 PM 46.9 °F - 28.9 °F 50% 30.19 in 10.0 mi SSE 6.9 mph - N/A   Clear